Starlink 32121

operational
NORAD ID: 60264 Int'l Des: 2024-131 Owner: SPXS Country: US Constellation: starlink
LEOCIRCULAR

关于 Starlink 32121

正在加载描述...

实时位置

正在加载3D地球...

即将过境

高度历史

Altitude vs Time

uPlot chart will show altitude changes over time

两行轨道根数

1 60264U 24131K 25304.66611726 -.00000587 00000-0 -76812-5 0 9999
2 60264 53.1612 291.7984 0001391 90.0513 270.0647 15.30190808 72011
Epoch: Oct 31, 2025 • Age: 19 hours

当前状态

高度 475.2 km
速度 7.63 km/s
星下点 11.26°N, 92.81°E
发射日期 Jul 27, 2024
运行时间 1.2 years
类型 internet

技术详情

分类 Payload
质量 730.00 kg
干质量 700.00 kg
总质量 730.00 kg
长度 0.30 m
直径 4.10 m
跨度 29.00 m
形状 Box + pan
制造商 SPXS
平台类型 Starlink V2M
阶段状态 In Orbit
所有者/国家 SPXS/US

大型星座

Loading constellations...